TimeCST,TemperatureF,Dew PointF,Humidity,Sea Level PressureIn,VisibilityMPH,Wind Direction,Wind SpeedMPH,Gust SpeedMPH,PrecipitationIn,Events,Conditions,WindDirDegrees,DateUTC
12:53 AM,33.1,30.9,92,30.32,9.0,NNE,3.5,-,N/A,,Clear,30,2013-01-06 06:53:00
1:53 AM,32.0,30.0,92,30.32,10.0,NNE,5.8,-,N/A,,Clear,30,2013-01-06 07:53:00
2:53 AM,33.1,30.0,89,30.32,9.0,Calm,Calm,-,N/A,,Clear,0,2013-01-06 08:53:00
3:53 AM,36.0,30.9,82,30.31,10.0,North,5.8,-,N/A,,Clear,350,2013-01-06 09:53:00
4:53 AM,39.0,30.9,73,30.31,10.0,NNW,5.8,-,N/A,,Clear,340,2013-01-06 10:53:00
6:53 AM,39.0,26.1,60,30.33,10.0,North,6.9,-,N/A,,Clear,350,2013-01-06 12:53:00
7:53 AM,33.1,28.0,82,30.38,10.0,WNW,4.6,-,N/A,,Clear,290,2013-01-06 13:53:00
8:53 AM,37.0,28.9,73,30.41,10.0,West,5.8,-,N/A,,Clear,280,2013-01-06 14:53:00
9:53 AM,41.0,30.9,67,30.43,10.0,West,6.9,-,N/A,,Clear,280,2013-01-06 15:53:00
10:53 AM,50.0,28.0,43,30.42,10.0,North,9.2,-,N/A,,Clear,10,2013-01-06 16:53:00
11:53 AM,52.0,28.9,41,30.41,10.0,North,13.8,20.7,N/A,,Clear,10,2013-01-06 17:53:00
12:53 PM,54.0,27.0,35,30.38,10.0,NNE,11.5,-,N/A,,Clear,30,2013-01-06 18:53:00
1:53 PM,57.0,27.0,32,30.34,10.0,Variable,6.9,-,N/A,,Clear,0,2013-01-06 19:53:00
2:53 PM,57.9,27.0,31,30.32,10.0,NNE,12.7,-,N/A,,Clear,20,2013-01-06 20:53:00
3:53 PM,57.9,27.0,31,30.31,10.0,North,8.1,-,N/A,,Clear,10,2013-01-06 21:53:00
4:53 PM,57.0,26.1,30,30.31,10.0,NNE,6.9,-,N/A,,Clear,20,2013-01-06 22:53:00
5:53 PM,52.0,26.1,37,30.32,10.0,NE,4.6,-,N/A,,Clear,40,2013-01-06 23:53:00
6:53 PM,45.0,28.0,52,30.34,10.0,Calm,Calm,-,N/A,,Clear,0,2013-01-07 00:53:00
7:53 PM,41.0,28.9,62,30.37,10.0,Calm,Calm,-,N/A,,Clear,0,2013-01-07 01:53:00
8:53 PM,39.0,28.9,67,30.38,10.0,Calm,Calm,-,N/A,,Clear,0,2013-01-07 02:53:00
9:53 PM,37.0,28.0,70,30.37,10.0,Calm,Calm,-,N/A,,Clear,0,2013-01-07 03:53:00
10:53 PM,34.0,27.0,75,30.36,10.0,NNE,3.5,-,N/A,,Clear,20,2013-01-07 04:53:00
11:53 PM,37.9,26.1,62,30.34,10.0,North,4.6,-,N/A,,Clear,10,2013-01-07 05:53:00